Temperature
24 25 24 24 24 24 24 24 24 24 24 24 24 23 22 21 20 20 20 20 20 20 20 20 20 21 21 22 22 22 21 20 20 19 19 19 19 18 18 18 18 17 17 17
25 24 23 23 23 24 24 23 23 24 23 23 24 23 22 20 20 19 19 19 19 18 19 19 19 20 21 21 22 22 21 20 20 20 20 20 19 19 18 18 18 17 17 17
24 23 23 23 23 23 23 22 22 22 23 23 23 23 22 21 20 19 18 18 17 17 17 18 18 19 20 20 21 22 21 20 20 20 20 20 19 19 18 18 18 17 17 17
23 22 22 23 21 22 22 21 21 21 22 23 22 22 23 21 20 20 18 17 17 16 16 16 16 17 18 19 21 21 21 20 19 19 20 20 19 18 17 17 17 17 17 17
21 21 21 20 20 20 20 20 20 21 21 21 22 21 23 20 19 19 18 17 16 15 15 15 16 16 17 18 19 20 20 19 18 18 19 18 18 17 17 17 17 17 17 17
21 20 19 19 20 20 20 20 21 20 21 20 22 22 20 18 17 17 17 17 16 15 15 15 15 15 16 16 17 18 18 18 17 17 17 17 17 16 16 16 16 17 17 17
21 19 19 19 19 19 19 19 19 19 19 20 21 20 16 16 16 16 16 16 15 15 15 15 15 15 15 15 16 16 16 16 16 16 16 16 15 15 15 15 15 16 16 16
19 19 18 18 17 17 18 18 17 17 18 18 19 17 15 16 16 16 15 15 15 15 15 14 14 14 14 14 15 15 15 15 15 14 14 15 14 14 14 14 15 15 16 16
19 18 18 17 17 17 17 17 16 16 17 17 18 16 15 16 16 15 15 15 14 14 14 14 14 13 14 14 14 14 14 14 14 14 13 13 13 13 14 14 15 15 16 16
18 18 17 17 17 16 15 15 15 15 15 16 17 15 13 14 14 14 14 13 14 14 14 14 13 13 13 13 13 13 13 13 13 13 13 13 14 14 14 15 15 15 16 16
18 18 17 17 15 13 13 13 13 14 14 14 14 13 12 12 12 12 12 12 12 13 13 13 13 13 13 13 13 13 14 14 14 14 14 14 14 14 15 15 15 15 16 16
17 18 17 16 15 14 13 13 13 12 13 13 12 12 12 11 11 11 11 11 11 12 13 13 13 13 13 13 13 13 14 14 14 14 14 14 14 15 15 15 15 15 16 16
17 17 18 17 16 15 13 13 13 13 12 12 11 11 12 11 10 10 11 11 11 12 12 13 13 13 13 13 13 14 14 14 14 14 14 14 14 15 15 15 15 16 16 16
16 17 17 15 14 13 13 13 13 13 12 11 11 11 11 10 10 10 10 10 11 11 12 12 12 12 13 13 13 13 14 14 14 14 14 14 14 15 15 15 16 16 16 16
18 17 16 15 14 14 14 13 13 12 11 11 11 10 10 9 9 10 10 11 11 11 11 11 11 11 12 12 12 13 13 13 14 14 14 14 15 15 15 15 16 16 16 16
17 17 16 15 15 15 15 14 13 12 11 11 12 11 10 10 11 11 11 11 12 12 12 12 12 11 11 12 12 12 12 13 13 14 14 14 14 15 15 15 15 15 15 15
17 17 16 16 15 15 15 14 13 12 12 11 11 11 11 12 12 12 11 12 12 12 12 12 12 12 12 12 11 11 12 12 12 13 13 13 13 13 13 13 14 14 14 14
16 16 16 16 16 16 15 14 13 13 12 12 12 13 13 13 12 13 12 12 13 13 13 13 13 12 12 12 12 12 12 12 12 12 12 12 12 12 12 12 13 13 12 13
16 16 16 16 16 16 14 14 13 14 14 13 13 13 13 14 15 15 13 13 13 13 13 13 13 13 13 12 12 13 12 12 11 11 11 11 11 11 11 12 12 12 12 12
15 16 16 16 17 16 15 14 13 14 15 14 13 14 14 15 17 16 13 13 13 13 13 13 13 13 13 13 13 13 13 12 11 11 11 11 11 11 11 11 11 11 11 11
16 16 16 17 17 17 15 13 13 14 15 14 13 13 13 14 14 13 13 13 13 14 14 14 14 14 13 13 13 13 13 12 12 11 11 11 11 11 11 11 11 11 11 11
17 17 16 16 17 16 13 13 14 15 14 13 13 13 13 13 13 13 13 13 13 14 14 14 14 14 14 14 13 13 13 12 12 11 11 11 11 11 11 11 11 11 11 11
16 17 17 17 17 15 13 13 13 12 13 13 13 12 12 12 13 13 13 13 13 14 14 15 15 15 14 14 14 14 13 13 12 12 11 11 11 11 11 11 11 11 10 10
16 14 15 15 15 14 13 12 12 12 12 12 12 12 12 12 12 12 13 13 13 13 14 14 15 15 15 15 15 14 14 14 13 12 12 11 11 11 11 11 10 10 10 10
17 15 15 16 16 14 13 13 13 12 12 12 12 12 12 12 12 12 12 12 13 13 14 14 15 15 15 15 15 15 15 14 13 12 12 11 11 11 10 10 10 10 10 10
16 15 16 17 16 16 15 13 12 12 12 12 12 12 12 12 12 12 12 12 12 13 14 14 15 15 15 15 15 15 15 15 14 13 12 12 11 11 10 10 10 10 10 10
Wind_Speed
1 2 4 5 4 4 4 5 6 3 3 4 4 3 3 8 11 12 13 13 13 13 12 9 9 8 11 14 17 18 17 17 14 12 11 9 9 8 7 8 10 11 12 12
3 7 7 4 3 2 4 6 7 4 2 6 7 5 2 6 10 12 13 15 15 16 15 13 10 8 9 12 16 19 19 18 17 14 13 9 8 7 6 6 8 11 11 12
7 7 5 3 5 5 3 5 6 8 7 7 8 8 5 3 6 11 13 15 16 17 17 16 14 11 9 8 11 14 17 17 16 14 11 9 6 4 4 5 5 8 10 10
6 8 6 6 9 10 6 6 8 9 10 8 5 9 5 1 4 12 15 16 17 17 17 16 15 13 12 9 6 8 10 12 12 12 10 10 6 4 2 2 3 5 7 8
6 10 11 11 11 11 9 11 12 12 13 14 12 10 5 2 6 12 16 17 17 16 16 16 14 13 12 10 6 3 5 8 10 9 9 9 7 4 3 3 1 2 3 5
10 9 11 12 9 8 12 13 12 10 11 15 14 12 3 5 9 13 15 16 16 15 15 14 13 11 10 10 8 7 9 10 10 9 10 11 10 7 4 3 2 1 2 3
5 11 10 12 13 9 12 11 7 7 8 9 3 6 5 8 9 11 14 15 15 14 13 13 13 11 9 9 8 9 11 11 10 10 10 12 11 7 4 2 1 2 3 3
7 6 11 12 11 10 10 9 6 6 7 5 3 1 6 8 9 11 13 13 14 13 12 11 11 9 8 8 9 9 11 11 10 9 9 9 9 5 3 2 1 3 4 4
7 6 8 9 10 10 9 8 6 7 9 8 4 4 3 12 14 16 16 16 16 14 12 10 10 9 8 9 9 9 10 10 9 8 7 8 7 3 1 1 3 4 5 4
5 3 7 8 8 11 8 8 6 4 5 4 2 3 7 16 18 18 17 17 16 14 11 10 9 8 8 8 8 8 8 8 7 7 5 5 4 0 2 4 6 7 7 7
5 4 5 7 11 12 9 6 5 4 4 4 3 2 7 13 15 15 15 14 14 13 10 9 8 7 7 6 6 6 6 7 7 6 4 3 0 3 5 6 7 7 7 7
4 3 4 6 6 6 6 7 5 4 4 3 3 2 7 12 12 13 13 13 13 13 11 10 9 8 7 7 6 5 4 4 3 3 2 1 4 6 7 8 7 6 6 6
2 3 1 3 3 9 7 12 8 3 3 4 3 4 10 14 15 15 14 14 13 13 13 12 11 10 9 8 7 5 4 3 3 2 2 3 4 4 4 4 3 3 4 5
1 5 6 5 4 5 7 12 13 8 4 4 6 7 12 17 16 16 15 14 13 14 14 13 12 11 11 11 10 8 6 4 2 1 2 3 3 3 3 2 1 2 3 4
1 4 7 7 4 5 9 10 12 11 8 6 7 8 10 14 13 13 13 13 14 15 14 14 13 13 13 13 13 12 11 9 8 8 7 6 6 5 5 4 3 2 1 3
0 4 5 4 2 2 5 9 9 8 7 7 7 7 9 11 9 11 12 12 13 13 14 14 14 14 14 13 13 13 12 11 11 11 10 9 8 8 8 7 6 5 4 3
1 3 3 2 2 4 1 5 5 4 6 5 5 5 11 10 10 10 11 11 12 13 13 13 13 13 13 12 12 12 12 11 12 12 11 10 10 10 9 9 9 8 7 7
1 3 2 1 3 1 4 2 1 2 2 3 5 7 9 9 6 6 10 11 11 12 12 12 11 11 11 11 11 11 11 12 12 12 12 11 10 10 10 10 10 9 8 8
1 2 2 2 1 2 3 3 2 2 1 2 5 7 9 9 1 8 12 12 10 10 9 9 9 9 9 10 10 10 11 11 11 11 11 10 10 10 9 9 9 8 7 7
2 3 3 3 3 1 4 5 2 3 2 2 3 6 9 9 6 9 13 12 10 9 8 9 8 8 8 8 7 8 9 10 9 9 9 9 9 9 9 8 8 7 6 6
3 3 4 4 3 2 5 6 4 3 3 3 2 5 7 7 7 9 11 10 9 8 8 9 8 7 7 6 6 7 8 8 7 6 6 7 7 7 7 7 7 7 6 6
3 3 3 3 3 2 9 7 5 1 3 1 2 4 6 7 8 9 10 10 10 10 9 9 8 8 7 6 5 5 5 4 3 3 4 5 6 6 6 6 6 6 6 6
5 4 2 4 1 4 8 5 2 1 1 1 2 4 5 7 8 9 10 10 10 10 9 9 9 9 7 5 5 5 3 2 1 2 3 4 4 5 5 6 6 5 6 6
4 3 4 5 6 7 7 7 5 4 3 1 2 3 4 6 8 9 9 9 9 10 10 9 9 9 9 7 6 5 3 2 2 2 3 3 5 6 6 5 5 5 6 6
5 7 5 6 5 7 9 10 8 6 4 3 1 1 3 5 7 8 8 9 9 9 9 9 9 9 10 9 7 5 4 3 2 1 2 3 4 5 5 5 5 5 6 6
8 8 7 5 8 8 9 13 11 8 6 4 2 0 2 4 6 8 8 8 9 9 9 9 9 9 10 9 8 6 4 4 3 1 2 3 3 4 4 4 5 4 3 5
Wind_Direction
50 39 19 359 343 320 303 282 279 304 351 309 295 318 47 35 31 22 14 7 0 351 340 329 312 292 269 255 241 228 217 209 202 193 191 190 197 200 206 211 215 214 216 220
161 44 19 25 22 311 296 285 288 287 316 298 285 277 97 52 37 25 14 7 3 355 350 345 333 311 277 258 246 235 220 211 201 194 189 190 187 192 199 213 219 220 220 223
64 30 15 21 16 326 311 317 308 300 296 256 277 253 190 86 40 27 18 11 7 1 353 350 348 342 322 285 260 243 226 209 199 190 178 167 156 150 170 200 214 221 222 222
68 33 18 18 20 343 303 349 312 292 280 269 254 273 203 22 19 17 10 6 2 356 352 352 353 354 352 339 306 254 221 198 183 174 170 158 150 150 177 198 211 219 220 218
66 36 29 22 9 353 335 322 300 285 274 270 248 256 229 51 7 1 359 357 355 353 351 352 353 355 358 1 14 59 130 141 144 146 134 114 99 81 48 22 340 233 219 214
77 52 34 9 351 356 331 308 283 261 258 256 251 244 208 36 359 348 348 350 351 350 351 352 356 358 7 16 38 76 99 107 116 122 115 107 99 83 58 23 359 307 230 208
71 57 31 8 353 352 350 333 292 259 240 253 270 239 83 31 4 350 343 344 347 349 352 354 357 2 13 27 44 70 89 94 99 103 101 101 95 91 83 44 348 277 236 209
9 34 25 15 8 340 347 346 328 296 289 302 293 215 93 23 7 355 349 348 350 352 352 355 1 10 24 42 55 71 81 86 88 90 90 91 91 91 85 55 307 264 250 218
15 38 34 24 17 4 344 351 335 296 287 279 252 108 97 2 360 356 354 354 352 351 354 2 14 25 38 51 59 68 76 79 81 83 80 78 80 74 78 251 255 251 233 202
6 35 33 22 17 26 4 335 317 303 304 289 300 50 0 349 347 346 349 349 348 349 3 21 30 32 42 50 60 69 70 71 74 75 78 85 83 66 251 245 242 236 220 198
4 37 58 42 25 4 358 357 334 304 299 308 317 39 6 340 338 340 344 347 350 354 19 34 35 33 25 25 32 36 44 61 66 69 76 77 39 254 248 245 243 237 222 204
9 351 76 71 55 26 7 355 335 331 328 313 300 17 8 348 349 354 354 359 1 11 32 42 37 25 13 7 5 8 13 32 33 37 41 287 246 241 236 232 231 224 214 209
16 342 267 145 73 23 14 12 6 321 316 351 350 360 2 359 3 5 4 10 16 26 35 38 35 26 15 8 1 357 343 339 329 327 314 276 267 262 249 232 228 229 220 215
320 52 54 69 54 11 13 17 22 27 14 10 9 356 358 358 359 2 8 16 28 36 38 37 35 30 25 21 18 21 19 12 7 14 18 355 356 354 346 350 321 273 250 236
263 103 104 109 102 44 38 26 29 35 23 15 7 15 358 346 349 360 10 21 33 39 41 40 39 36 35 36 36 37 37 38 46 55 51 38 32 31 28 25 14 355 313 269
23 139 148 154 195 343 43 32 26 26 15 10 27 36 344 334 351 8 16 26 35 40 43 43 41 39 38 39 42 45 46 47 52 55 51 44 43 43 41 38 39 42 38 25
174 174 194 139 170 224 86 31 19 19 14 3 15 343 325 339 357 8 11 22 35 39 41 40 40 40 39 40 40 43 45 50 54 55 52 49 50 50 48 49 50 49 50 50
207 191 217 209 214 204 88 85 324 318 360 349 329 329 335 337 340 17 22 19 26 29 33 35 36 39 42 43 45 47 49 51 53 53 51 49 50 50 50 49 46 44 47 49
298 220 222 236 230 134 173 200 235 270 55 12 341 348 352 337 101 61 27 12 10 11 17 24 27 34 40 39 38 48 52 53 52 49 48 47 47 47 46 45 41 37 39 44
130 220 236 228 248 216 147 142 177 247 169 86 353 356 357 1 52 33 3 355 357 359 2 5 13 27 36 34 32 44 50 52 51 48 48 47 46 43 41 40 36 36 39 40
212 214 230 236 246 152 141 148 180 221 107 88 4 356 359 10 3 341 343 352 354 353 352 350 357 12 15 13 17 34 42 47 46 44 44 42 40 37 32 30 29 30 36 41
248 230 220 223 232 180 151 167 203 57 82 54 353 351 348 345 344 349 354 358 359 357 355 349 345 348 351 354 357 20 33 35 40 42 41 38 31 25 20 22 26 30 31 37
229 243 261 238 3 106 171 193 180 168 202 331 336 341 337 339 347 349 352 356 358 357 354 348 338 331 334 344 343 349 9 352 3 35 39 29 28 30 25 24 29 35 37 36
207 204 232 242 226 200 196 201 198 204 229 275 306 322 332 339 344 347 350 351 352 353 352 344 337 332 335 338 330 323 324 298 299 13 27 25 24 32 42 43 38 40 39 36
214 189 216 232 198 191 206 203 194 191 202 211 228 313 340 344 349 349 348 351 348 346 345 342 339 333 329 332 332 329 313 292 299 355 33 29 36 34 41 57 50 45 54 32
200 196 198 212 191 189 190 187 185 186 191 193 200 305 349 347 348 349 351 351 347 344 344 345 345 341 339 340 341 345 326 295 294 343 39 39 43 45 44 55 89 90 55 41
Height
1520 1519 1521 1521 1519 1519 1518 1519 1519 1517 1517 1517 1516 1517 1520 1523 1522 1520 1519 1517 1515 1513 1511 1509 1508 1507 1507 1509 1512 1514 1516 1518 1520 1521 1523 1525 1527 1528 1530 1532 1534 1536 1538 1540
1519 1524 1525 1523 1522 1520 1519 1521 1519 1517 1518 1517 1515 1515 1519 1522 1522 1522 1520 1518 1515 1512 1509 1507 1505 1504 1503 1503 1505 1508 1510 1512 1514 1516 1519 1521 1523 1525 1527 1529 1531 1533 1535 1537
1526 1531 1527 1524 1524 1522 1523 1525 1524 1523 1518 1516 1516 1514 1516 1519 1521 1522 1521 1519 1516 1513 1509 1505 1502 1500 1499 1498 1498 1501 1504 1506 1507 1510 1513 1516 1519 1522 1524 1526 1528 1531 1532 1534
1529 1532 1529 1527 1529 1528 1524 1527 1526 1523 1521 1515 1517 1518 1510 1516 1518 1520 1520 1518 1516 1513 1509 1505 1501 1498 1495 1493 1492 1494 1496 1499 1501 1503 1506 1510 1514 1518 1521 1523 1525 1527 1530 1531
1535 1537 1535 1536 1537 1535 1531 1529 1526 1523 1520 1518 1513 1518 1508 1515 1519 1521 1521 1520 1517 1514 1510 1506 1502 1497 1494 1491 1489 1489 1491 1493 1496 1498 1499 1503 1507 1512 1517 1519 1521 1524 1526 1528
1539 1542 1543 1543 1539 1538 1533 1528 1521 1519 1518 1520 1508 1511 1515 1525 1528 1525 1523 1521 1518 1515 1511 1506 1502 1498 1494 1491 1488 1487 1488 1490 1492 1494 1495 1497 1500 1506 1512 1516 1518 1521 1523 1525
1540 1544 1547 1546 1541 1537 1535 1533 1527 1524 1521 1516 1508 1513 1530 1533 1531 1530 1526 1523 1519 1515 1511 1507 1503 1499 1496 1493 1490 1488 1488 1489 1491 1493 1493 1495 1497 1502 1509 1513 1516 1519 1521 1523
1546 1548 1551 1550 1549 1546 1540 1539 1543 1542 1532 1524 1518 1524 1537 1534 1533 1531 1528 1524 1519 1515 1512 1508 1504 1501 1497 1495 1492 1491 1490 1490 1492 1493 1494 1495 1497 1502 1507 1511 1515 1519 1521 1523
1549 1552 1553 1554 1553 1550 1546 1543 1545 1545 1534 1532 1520 1530 1535 1533 1531 1530 1526 1523 1519 1515 1512 1509 1506 1502 1499 1497 1495 1494 1493 1493 1495 1495 1497 1497 1499 1505 1508 1511 1515 1519 1521 1522
1552 1553 1555 1556 1554 1554 1555 1552 1548 1547 1545 1537 1528 1536 1543 1538 1535 1532 1528 1524 1520 1516 1513 1510 1507 1504 1502 1500 1499 1498 1498 1498 1499 1499 1501 1502 1504 1508 1511 1513 1516 1518 1520 1522
1553 1552 1556 1556 1560 1564 1561 1558 1555 1549 1548 1550 1547 1551 1549 1546 1542 1536 1532 1527 1522 1517 1514 1512 1509 1508 1506 1505 1504 1503 1502 1502 1503 1504 1505 1506 1508 1510 1513 1514 1516 1517 1519 1520
1558 1552 1554 1560 1563 1564 1565 1562 1559 1559 1555 1553 1554 1558 1552 1549 1544 1539 1533 1528 1523 1519 1517 1515 1513 1511 1509 1508 1507 1506 1506 1507 1507 1507 1508 1509 1510 1512 1513 1514 1515 1517 1518 1519
1558 1555 1553 1555 1563 1565 1565 1562 1557 1557 1557 1557 1559 1561 1553 1549 1544 1540 1535 1530 1525 1522 1520 1518 1516 1514 1512 1510 1509 1509 1509 1509 1509 1510 1510 1511 1512 1513 1514 1514 1515 1515 1516 1517
1561 1557 1559 1567 1572 1571 1569 1565 1560 1558 1562 1562 1563 1560 1556 1551 1546 1542 1538 1533 1530 1526 1524 1522 1520 1518 1515 1513 1511 1510 1509 1509 1510 1511 1511 1512 1512 1513 1513 1514 1514 1514 1514 1515
1560 1560 1563 1567 1569 1568 1569 1568 1565 1566 1567 1567 1565 1562 1561 1556 1552 1547 1543 1538 1534 1532 1529 1527 1525 1522 1520 1517 1514 1512 1511 1510 1511 1511 1511 1511 1512 1512 1512 1512 1512 1512 1512 1513
1562 1562 1564 1567 1569 1568 1567 1568 1567 1568 1569 1567 1563 1564 1562 1558 1554 1550 1546 1543 1540 1537 1535 1533 1530 1527 1524 1522 1519 1517 1515 1513 1512 1512 1511 1511 1511 1511 1511 1510 1510 1510 1510 1510
1562 1561 1562 1562 1567 1567 1565 1570 1571 1571 1571 1570 1568 1568 1562 1558 1555 1553 1550 1547 1544 1542 1540 1537 1535 1532 1529 1527 1524 1521 1519 1517 1515 1514 1513 1512 1512 1511 1510 1510 1509 1509 1508 1508
1563 1562 1562 1562 1565 1562 1570 1570 1572 1571 1570 1570 1568 1565 1562 1559 1557 1555 1553 1550 1548 1546 1544 1542 1539 1537 1535 1532 1529 1527 1524 1522 1520 1518 1516 1515 1514 1513 1512 1511 1510 1509 1508 1508
1566 1564 1562 1562 1561 1564 1569 1570 1570 1569 1567 1568 1567 1564 1561 1558 1555 1555 1555 1553 1552 1550 1548 1546 1543 1541 1539 1536 1534 1532 1530 1527 1524 1522 1521 1519 1518 1516 1515 1514 1512 1511 1510 1508
1567 1565 1561 1561 1560 1561 1564 1568 1571 1572 1565 1567 1567 1565 1562 1557 1552 1557 1557 1555 1553 1552 1550 1548 1546 1544 1542 1539 1537 1536 1534 1531 1528 1526 1525 1523 1521 1520 1518 1516 1514 1512 1511 1509
1561 1562 1560 1559 1557 1557 1564 1569 1572 1569 1564 1567 1567 1566 1564 1562 1562 1562 1558 1557 1555 1553 1552 1550 1548 1547 1544 1542 1540 1539 1536 1534 1531 1529 1527 1525 1524 1522 1520 1518 1515 1513 1511 1509
1557 1557 1558 1558 1556 1561 1565 1567 1567 1564 1566 1567 1567 1567 1566 1564 1563 1561 1560 1558 1556 1554 1552 1551 1549 1548 1546 1544 1542 1541 1538 1535 1533 1531 1529 1527 1525 1523 1521 1519 1516 1514 1512 1510
1558 1557 1555 1556 1557 1560 1563 1564 1565 1566 1567 1567 1567 1567 1566 1565 1563 1562 1560 1558 1556 1554 1553 1551 1549 1548 1547 1545 1543 1541 1539 1536 1534 1532 1531 1529 1527 1524 1522 1520 1517 1515 1513 1511
1555 1559 1558 1556 1556 1560 1561 1563 1564 1566 1567 1567 1567 1567 1566 1565 1563 1561 1560 1558 1556 1554 1553 1551 1549 1547 1546 1544 1542 1541 1539 1537 1535 1534 1532 1530 1528 1526 1523 1520 1518 1516 1514 1513
1550 1555 1554 1552 1553 1557 1559 1560 1563 1564 1566 1566 1567 1566 1566 1565 1563 1561 1560 1558 1556 1554 1552 1550 1548 1546 1545 1543 1541 1540 1538 1537 1535 1534 1532 1531 1529 1527 1524 1521 1519 1517 1516 1514
1546 1548 1547 1546 1548 1550 1553 1557 1560 1563 1565 1566 1566 1566 1566 1564 1563 1561 1560 1557 1555 1553 1552 1550 1548 1546 1544 1542 1540 1539 1537 1536 1535 1535 1533 1531 1530 1528 1526 1524 1521 1519 1518 1516